Regional Weather Roundup
Issued by NWS

Home | Current Version | Previous Version | Text Only | Print | Product List | Glossary On
Versions: 1 2 3 4 5 6 7 8 9 10 11 12 13 14 15 16 17 18 19 20 21 22 23 24 25 26 27 28 29 30 31 32 33 34 35 36 37 38 39 40 41 42 43 44 45 46 47 48 49 50
000
ASUS43 KDMX 301907
RWRIA

WEATHER ROUNDUP FOR IOWA
NATIONAL WEATHER SERVICE DES MOINES IA
200 PM CDT SAT MAY 30 2015

NOTE: "FAIR" INDICATES FEW OR NO CLOUDS BELOW 12,000 FEET WITH NO
SIGNIFICANT WEATHER AND/OR OBSTRUCTIONS TO VISIBILITY.

* - THESE STATIONS ARE NOT NWS STATIONS...THUS NOT UNDER NWS
QUALITY CONTROL.  THEY ALSO DO NOT REPORT WEATHER SUCH
AS PRECIPITATION OR FOG.

IAZ001>003-012>014-020>022-031>034-043>046-302000-
   NORTHWEST IOWA

CITY           SKY/WX    TMP DP  RH WIND       PRES   REMARKS
CARROLL *      CLOUDY    59  52  77 N15G23    30.18S
CHEROKEE *     SUNNY     61  43  51 N12G20    30.21F
DENISON *      SUNNY     61  48  63 N12G21    30.17F
LE MARS *      SUNNY     61  45  55 N14G22    30.24F
ORANGE CITY *  SUNNY     57  43  58 N9G20     30.24S
SHELDON *      SUNNY     59  59 100 N16G22    30.22F
SIOUX CITY     SUNNY     64  43  46 N10G22    30.22F
SPENCER        SUNNY     60  43  53 N17G25    30.23S
STORM LAKE *   SUNNY     61  41  48 NE18      30.20F
$$

IAZ055>058-069>071-079>083-090>094-302000-
   SOUTHWEST IOWA

CITY           SKY/WX    TMP DP  RH WIND       PRES   REMARKS
ATLANTIC *     CLOUDY    57  54  88 N13G22    30.17F
AUDUBON *      CLOUDY    57  52  82 N15       30.18F
CLARINDA *     CLOUDY    59  54  82 N15       30.17F
COUNCIL BLFS * MOSUNNY   63  48  59 N14G23    30.18F
CRESTON *      CLOUDY    57  54  88 N16       30.14S
HARLAN  *      MOSUNNY   61  57  88 N15G25    30.21F
LAMONI         CLOUDY    61  54  77 N14       30.11S
RED OAK *      CLOUDY    61  54  77 N17       30.17S
SHENANDOAH *   CLOUDY    61  52  72 N15G21    30.18S
$$

IAZ047>049-059>061-072>074-084-302000-
   CENTRAL IOWA

CITY           SKY/WX    TMP DP  RH WIND       PRES   REMARKS
AMES           CLOUDY    62  52  69 N18       30.13S
ANKENY *       CLOUDY    61  55  82 N12G18    30.12S
CHARITON *     CLOUDY    59  55  88 N17       30.11R
DES MOINES     CLOUDY    63  52  67 N10       30.12S
GRINNELL*      CLOUDY    61  52  72 N16G26    30.11R
KNOXVILLE *    CLOUDY    59  52  77 N15       30.09S
MARSHALLTOWN   CLOUDY    59  53  80 N17G26    30.12S
PELLA *        CLOUDY    61  57  88 N14G21    30.11S
PERRY *        CLOUDY    61  52  72 N20G26    30.16S
$$

IAZ004>006-015-016-023>025-035-036-302000-
   NORTH CENTRAL IOWA

CITY           SKY/WX    TMP DP  RH WIND       PRES   REMARKS
ALGONA *       MOSUNNY   59  48  67 N23G30    30.20F
CLARION *      CLOUDY    59  52  77 N15G22    30.17S
ESTHERVILLE    MOSUNNY   58  45  62 N18G26    30.22F
FORT DODGE *   PTSUNNY   61  48  63 N15G22    30.18F
MASON CITY     CLOUDY    57  49  74 N21       30.20R
FOREST CITY *  CLOUDY    55  48  76 N14G21    30.19S
IOWA FALLS *   CLOUDY    59  52  77 N14       30.16S
$$

IAZ007>011-017>019-026>030-037>042-050>054-066-302000-
   NORTHEAST IOWA

CITY           SKY/WX    TMP DP  RH WIND       PRES   REMARKS
CEDAR RAPIDS   LGT RAIN  60  58  92 N17       30.06R FOG
CHARLES CITY * CLOUDY    59  54  82 N15       30.17R
CLINTON *      CLOUDY    57  54  88 NE15G25   30.05R
DECORAH *      CLOUDY    57  52  82 N12       30.15R
DUBUQUE        LGT RAIN  55  54  96 NE24G33   30.08R FOG
MONTICELLO *   PTSUNNY   59  57  94 NE15G24   30.07R FOG
OELWEIN *      CLOUDY    59  54  82 NE20G25   30.12S
WATERLOO       CLOUDY    59  52  77 NE15G24   30.12S
$$

IAZ064-065-067-068-078-302000-
   EAST CENTRAL IOWA

CITY           SKY/WX    TMP DP  RH WIND       PRES   REMARKS
DAVENPORT      CLOUDY    62  56  80 N21G30    30.02R
IOWA CITY      CLOUDY    63  59  87 N10       30.06R
MT. PLEASANT * CLOUDY    64  61  88 NW17      30.02S
MUSCATINE *    CLOUDY    66  61  82 N14       30.02S
QUAD CITIES    CLOUDY    66  60  81 N10       29.99R
$$

IAZ062-063-075>077-085>089-095>099-302000-
   SOUTHEAST IOWA

CITY           SKY/WX    TMP DP  RH WIND       PRES   REMARKS
BURLINGTON     CLOUDY    68  65  90 NW10      29.99S
FAIRFIELD *    CLOUDY    63  57  82 N15       30.05S
FORT MADISON * CLOUDY    66  64  94 NW12G17   30.01S FOG
KEOKUK *       CLOUDY    66  64  94 NW9G15    30.00S
OSKALOOSA *    CLOUDY    61  55  82 N15       30.08S
CENTERVILLE *  CLOUDY    59  59 100 N17       30.09S
OTTUMWA        LGT RAIN  60  57  89 N15       30.08R FOG
WASHINGTON *   CLOUDY    64  59  82 N17       30.05S
$$

ABBREVIATIONS USED IN REMARKS
   TC - TEMPERATURES IN CELSIUS
  WCI - WIND CHILL INDEX
   HX - HEAT INDEX
  VSB - VISIBILITY
$$




USA.gov is the U.S. government's official web portal to all federal, state and local government web resources and services.